Time,TemperatureF,DewpointF,PressureIn,WindDirection,WindDirectionDegrees,WindSpeedMPH,WindSpeedGustMPH,Humidity,HourlyPrecipIn,Conditions,Clouds,dailyrainin,SoftwareType,DateUTC
2013-03-02 00:02:00,28.6,13.6,29.78,NW,325,8.0,15.0,53,0.00,,,0.00,meteohub,2013-03-02 05:02:00,
2013-03-02 00:12:00,28.6,13.3,29.78,NNW,348,8.0,16.0,52,0.00,,,0.00,meteohub,2013-03-02 05:12:00,
2013-03-02 00:17:00,28.6,13.3,29.78,NNW,348,7.0,16.0,52,0.00,,,0.00,meteohub,2013-03-02 05:17:00,
2013-03-02 00:22:00,28.6,13.3,29.78,NNW,348,8.0,16.0,52,0.00,,,0.00,meteohub,2013-03-02 05:22:00,
2013-03-02 00:27:00,28.6,12.7,29.78,SSW,212,4.0,13.0,51,0.00,,,0.00,meteohub,2013-03-02 05:27:00,
2013-03-02 00:32:00,28.6,12.4,29.78,NNW,348,8.0,16.0,50,0.00,,,0.00,meteohub,2013-03-02 05:32:00,
2013-03-02 00:37:00,28.4,12.6,29.78,WNW,302,4.0,19.0,51,0.00,,,0.00,meteohub,2013-03-02 05:37:00,
2013-03-02 00:42:00,28.4,11.7,29.75,WNW,302,7.0,19.0,49,0.00,,,0.00,meteohub,2013-03-02 05:42:00,
2013-03-02 00:47:00,28.4,11.7,29.75,WNW,302,6.0,13.0,49,0.00,,,0.00,meteohub,2013-03-02 05:47:00,
2013-03-02 00:52:00,28.4,11.7,29.75,WNW,302,12.0,17.0,49,0.00,,,0.00,meteohub,2013-03-02 05:52:00,
2013-03-02 00:57:00,28.2,12.0,29.75,West,280,6.0,17.0,50,0.00,,,0.00,meteohub,2013-03-02 05:57:00,
2013-03-02 01:02:00,28.2,12.9,29.75,WSW,258,13.0,17.0,52,0.00,,,0.00,meteohub,2013-03-02 06:02:00,
2013-03-02 01:07:00,27.9,12.6,29.75,WNW,302,12.0,17.0,52,0.00,,,0.00,meteohub,2013-03-02 06:07:00,
2013-03-02 01:12:00,27.9,12.9,29.78,NNW,348,7.0,17.0,53,0.00,,,0.00,meteohub,2013-03-02 06:12:00,
2013-03-02 01:17:00,27.7,12.7,29.78,NNW,348,12.0,17.0,53,0.00,,,0.00,meteohub,2013-03-02 06:17:00,
2013-03-02 01:22:00,27.7,12.7,29.78,NNW,348,8.0,16.0,53,0.00,,,0.00,meteohub,2013-03-02 06:22:00,
2013-03-02 01:27:00,27.5,12.6,29.78,West,280,9.0,13.0,53,0.00,,,0.00,meteohub,2013-03-02 06:27:00,
2013-03-02 01:32:00,27.5,13.1,29.78,SSW,212,10.0,20.0,54,0.00,,,0.00,meteohub,2013-03-02 06:32:00,
2013-03-02 01:37:00,27.3,12.9,29.78,West,280,4.0,20.0,54,0.00,,,0.00,meteohub,2013-03-02 06:37:00,
2013-03-02 01:42:00,27.1,12.7,29.78,WSW,258,5.0,20.0,54,0.00,,,0.00,meteohub,2013-03-02 06:42:00,
2013-03-02 01:47:00,27.1,12.7,29.78,NNW,348,6.0,15.0,54,0.00,,,0.00,meteohub,2013-03-02 06:47:00,
2013-03-02 01:52:00,27.0,12.9,29.78,NNW,348,5.0,11.0,55,0.00,,,0.00,meteohub,2013-03-02 06:52:00,
2013-03-02 01:57:00,27.0,12.6,29.78,WNW,302,0.0,9.0,54,0.00,,,0.00,meteohub,2013-03-02 06:57:00,
2013-03-02 02:02:00,27.0,12.6,29.78,WSW,258,0.0,9.0,54,0.00,,,0.00,meteohub,2013-03-02 07:02:00,
2013-03-02 02:07:00,27.0,12.6,29.78,SW,235,2.0,9.0,54,0.00,,,0.00,meteohub,2013-03-02 07:07:00,
2013-03-02 02:12:00,26.8,12.4,29.78,WNW,302,6.0,6.0,54,0.00,,,0.00,meteohub,2013-03-02 07:12:00,
2013-03-02 02:17:00,26.8,12.4,29.78,North,10,6.0,8.0,54,0.00,,,0.00,meteohub,2013-03-02 07:17:00,
2013-03-02 02:22:00,26.8,12.4,29.78,West,280,5.0,11.0,54,0.00,,,0.00,meteohub,2013-03-02 07:22:00,
2013-03-02 02:27:00,26.8,12.4,29.75,ENE,78,5.0,11.0,54,0.00,,,0.00,meteohub,2013-03-02 07:27:00,
2013-03-02 02:32:00,26.8,12.4,29.75,West,280,0.0,11.0,54,0.00,,,0.00,meteohub,2013-03-02 07:32:00,
2013-03-02 02:37:00,26.8,12.0,29.75,WNW,302,6.0,9.0,53,0.00,,,0.00,meteohub,2013-03-02 07:37:00,
2013-03-02 02:42:00,27.0,12.2,29.75,WSW,258,7.0,10.0,53,0.00,,,0.00,meteohub,2013-03-02 07:42:00,
2013-03-02 02:47:00,27.0,12.2,29.75,NW,325,2.0,10.0,53,0.00,,,0.00,meteohub,2013-03-02 07:47:00,
2013-03-02 02:52:00,27.0,12.2,29.75,WNW,302,6.0,10.0,53,0.00,,,0.00,meteohub,2013-03-02 07:52:00,
2013-03-02 02:57:00,27.0,12.2,29.75,SSW,212,5.0,9.0,53,0.00,,,0.00,meteohub,2013-03-02 07:57:00,
2013-03-02 03:02:00,26.8,12.0,29.75,NNE,32,7.0,10.0,53,0.00,,,0.00,meteohub,2013-03-02 08:02:00,
2013-03-02 03:07:00,26.8,12.0,29.75,WNW,302,7.0,21.0,53,0.00,,,0.00,meteohub,2013-03-02 08:07:00,
2013-03-02 03:12:00,26.8,11.5,29.75,NW,325,10.0,21.0,52,0.00,,,0.00,meteohub,2013-03-02 08:12:00,
2013-03-02 03:17:00,26.6,11.3,29.75,WNW,302,10.0,13.0,52,0.00,,,0.00,meteohub,2013-03-02 08:17:00,
2013-03-02 03:22:00,26.6,11.3,29.75,WNW,302,11.0,13.0,52,0.00,,,0.00,meteohub,2013-03-02 08:22:00,
2013-03-02 03:27:00,26.6,11.3,29.75,NNW,348,12.0,21.0,52,0.00,,,0.00,meteohub,2013-03-02 08:27:00,
2013-03-02 03:32:00,26.4,11.1,29.75,WNW,302,9.0,21.0,52,0.00,,,0.00,meteohub,2013-03-02 08:32:00,
2013-03-02 03:37:00,26.4,11.1,29.75,West,280,6.0,21.0,52,0.00,,,0.00,meteohub,2013-03-02 08:37:00,
2013-03-02 03:42:00,26.2,11.1,29.75,WSW,258,5.0,21.0,52,0.00,,,0.00,meteohub,2013-03-02 08:42:00,
2013-03-02 03:47:00,26.1,10.9,29.75,NNW,348,11.0,26.0,52,0.00,,,0.00,meteohub,2013-03-02 08:47:00,
2013-03-02 03:52:00,26.1,10.9,29.75,North,10,11.0,26.0,52,0.00,,,0.00,meteohub,2013-03-02 08:52:00,
2013-03-02 03:57:00,26.1,10.9,29.75,NNW,348,6.0,26.0,52,0.00,,,0.00,meteohub,2013-03-02 08:57:00,
2013-03-02 04:02:00,26.1,10.9,29.75,NW,325,14.0,16.0,52,0.00,,,0.00,meteohub,2013-03-02 09:02:00,
2013-03-02 04:07:00,25.9,10.8,29.75,NNW,348,7.0,16.0,52,0.00,,,0.00,meteohub,2013-03-02 09:07:00,
2013-03-02 04:12:00,25.9,10.8,29.75,West,280,7.0,14.0,52,0.00,,,0.00,meteohub,2013-03-02 09:12:00,
2013-03-02 04:17:00,25.7,10.6,29.75,SSE,168,5.0,14.0,52,0.00,,,0.00,meteohub,2013-03-02 09:17:00,
2013-03-02 04:22:00,25.7,10.6,29.75,SSW,212,8.0,19.0,52,0.00,,,0.00,meteohub,2013-03-02 09:22:00,
2013-03-02 04:27:00,25.7,10.6,29.72,NW,325,11.0,19.0,52,0.00,,,0.00,meteohub,2013-03-02 09:27:00,
2013-03-02 04:32:00,25.5,10.8,29.72,SSW,212,8.0,19.0,53,0.00,,,0.00,meteohub,2013-03-02 09:32:00,
2013-03-02 04:37:00,25.5,10.8,29.72,WSW,258,5.0,13.0,53,0.00,,,0.00,meteohub,2013-03-02 09:37:00,
2013-03-02 04:42:00,25.3,10.6,29.75,South,190,6.0,15.0,53,0.00,,,0.00,meteohub,2013-03-02 09:42:00,
2013-03-02 04:47:00,25.3,10.6,29.75,North,10,6.0,15.0,53,0.00,,,0.00,meteohub,2013-03-02 09:47:00,
2013-03-02 04:52:00,25.3,10.6,29.75,WNW,302,6.0,13.0,53,0.00,,,0.00,meteohub,2013-03-02 09:52:00,
2013-03-02 05:02:00,25.3,10.2,29.75,WNW,302,4.0,19.0,52,0.00,,,0.00,meteohub,2013-03-02 10:02:00,
2013-03-02 05:07:00,25.3,10.2,29.75,WNW,302,5.0,19.0,52,0.00,,,0.00,meteohub,2013-03-02 10:07:00,
2013-03-02 05:12:00,25.3,10.2,29.72,WSW,258,8.0,12.0,52,0.00,,,0.00,meteohub,2013-03-02 10:12:00,
2013-03-02 05:22:00,25.3,10.2,29.72,SW,235,5.0,14.0,52,0.00,,,0.00,meteohub,2013-03-02 10:22:00,
2013-03-02 05:27:00,25.3,10.2,29.75,SW,235,6.0,14.0,52,0.00,,,0.00,meteohub,2013-03-02 10:27:00,
2013-03-02 05:32:00,25.3,10.2,29.75,West,280,3.0,15.0,52,0.00,,,0.00,meteohub,2013-03-02 10:32:00,
2013-03-02 05:37:00,25.3,10.2,29.75,WNW,302,8.0,15.0,52,0.00,,,0.00,meteohub,2013-03-02 10:37:00,
2013-03-02 05:47:00,25.3,10.2,29.72,SW,235,5.0,13.0,52,0.00,,,0.00,meteohub,2013-03-02 10:47:00,
2013-03-02 05:52:00,25.3,10.2,29.72,NNW,348,7.0,15.0,52,0.00,,,0.00,meteohub,2013-03-02 10:52:00,
2013-03-02 05:57:00,25.3,10.2,29.75,NW,325,16.0,16.0,52,0.00,,,0.00,meteohub,2013-03-02 10:57:00,
2013-03-02 06:02:00,25.3,9.7,29.75,SSW,212,4.0,16.0,51,0.00,,,0.00,meteohub,2013-03-02 11:02:00,
2013-03-02 06:07:00,25.2,10.0,29.75,SSW,212,21.0,21.0,52,0.00,,,0.00,meteohub,2013-03-02 11:07:00,
2013-03-02 06:12:00,25.2,9.7,29.75,NW,325,17.0,21.0,51,0.00,,,0.00,meteohub,2013-03-02 11:12:00,
2013-03-02 06:17:00,25.2,9.7,29.75,WNW,302,5.0,21.0,51,0.00,,,0.00,meteohub,2013-03-02 11:17:00,
2013-03-02 06:22:00,25.2,10.0,29.75,NNW,348,6.0,21.0,52,0.00,,,0.00,meteohub,2013-03-02 11:22:00,
2013-03-02 06:27:00,25.2,10.0,29.75,WNW,302,5.0,19.0,52,0.00,,,0.00,meteohub,2013-03-02 11:27:00,
2013-03-02 06:32:00,25.0,9.9,29.75,SSW,212,7.0,19.0,52,0.00,,,0.00,meteohub,2013-03-02 11:32:00,
2013-03-02 06:37:00,25.0,9.9,29.75,SW,235,4.0,19.0,52,0.00,,,0.00,meteohub,2013-03-02 11:37:00,
2013-03-02 06:42:00,25.0,9.9,29.75,SW,235,2.0,11.0,52,0.00,,,0.00,meteohub,2013-03-02 11:42:00,
2013-03-02 06:47:00,25.0,9.9,29.75,WNW,302,8.0,8.0,52,0.00,,,0.00,meteohub,2013-03-02 11:47:00,
2013-03-02 06:52:00,25.0,9.9,29.75,WSW,258,6.0,13.0,52,0.00,,,0.00,meteohub,2013-03-02 11:52:00,
2013-03-02 06:57:00,25.0,9.9,29.75,NNW,348,11.0,13.0,52,0.00,,,0.00,meteohub,2013-03-02 11:57:00,
2013-03-02 07:02:00,25.0,9.9,29.75,WSW,258,5.0,13.0,52,0.00,,,0.00,meteohub,2013-03-02 12:02:00,
2013-03-02 07:07:00,24.8,10.0,29.75,North,10,10.0,20.0,53,0.00,,,0.00,meteohub,2013-03-02 12:07:00,
2013-03-02 07:12:00,25.0,10.2,29.75,West,280,5.0,22.0,53,0.00,,,0.00,meteohub,2013-03-02 12:12:00,
2013-03-02 07:17:00,24.8,10.0,29.75,West,280,7.0,22.0,53,0.00,,,0.00,meteohub,2013-03-02 12:17:00,
2013-03-02 07:22:00,25.0,10.2,29.75,SSW,212,7.0,25.0,53,0.00,,,0.00,meteohub,2013-03-02 12:22:00,
2013-03-02 07:27:00,25.0,10.2,29.75,SSW,212,6.0,25.0,53,0.00,,,0.00,meteohub,2013-03-02 12:27:00,
2013-03-02 07:32:00,24.8,10.0,29.75,West,280,4.0,16.0,53,0.00,,,0.00,meteohub,2013-03-02 12:32:00,
2013-03-02 07:37:00,24.8,9.7,29.75,West,280,12.0,21.0,52,0.00,,,0.00,meteohub,2013-03-02 12:37:00,
2013-03-02 07:42:00,25.0,9.9,29.75,West,280,9.0,21.0,52,0.00,,,0.00,meteohub,2013-03-02 12:42:00,
2013-03-02 07:47:00,25.0,9.9,29.75,NNW,348,11.0,18.0,52,0.00,,,0.00,meteohub,2013-03-02 12:47:00,
2013-03-02 07:52:00,25.2,10.0,29.75,West,280,5.0,13.0,52,0.00,,,0.00,meteohub,2013-03-02 12:52:00,
2013-03-02 07:57:00,25.2,9.7,29.75,North,10,13.0,13.0,51,0.00,,,0.00,meteohub,2013-03-02 12:57:00,
2013-03-02 08:02:00,25.3,10.2,29.75,West,280,11.0,13.0,52,0.00,,,0.00,meteohub,2013-03-02 13:02:00,
2013-03-02 08:07:00,25.3,10.2,29.75,NNW,348,7.0,14.0,52,0.00,,,0.00,meteohub,2013-03-02 13:07:00,
2013-03-02 08:12:00,25.3,10.2,29.75,WNW,302,7.0,14.0,52,0.00,,,0.00,meteohub,2013-03-02 13:12:00,
2013-03-02 08:17:00,25.3,10.2,29.75,NNW,348,9.0,17.0,52,0.00,,,0.00,meteohub,2013-03-02 13:17:00,
2013-03-02 08:22:00,25.2,10.4,29.75,NNW,348,6.0,17.0,53,0.00,,,0.00,meteohub,2013-03-02 13:22:00,
2013-03-02 08:27:00,25.3,10.6,29.75,NNW,348,6.0,13.0,53,0.00,,,0.00,meteohub,2013-03-02 13:27:00,
2013-03-02 08:32:00,25.3,10.6,29.75,WSW,258,6.0,13.0,53,0.00,,,0.00,meteohub,2013-03-02 13:32:00,
2013-03-02 08:37:00,25.2,10.4,29.75,NNW,348,9.0,13.0,53,0.00,,,0.00,meteohub,2013-03-02 13:37:00,
2013-03-02 08:42:00,25.2,10.4,29.75,WNW,302,10.0,13.0,53,0.00,,,0.00,meteohub,2013-03-02 13:42:00,
2013-03-02 08:47:00,25.3,10.6,29.75,WSW,258,6.0,13.0,53,0.00,,,0.00,meteohub,2013-03-02 13:47:00,
2013-03-02 08:52:00,25.3,11.1,29.75,WNW,302,6.0,12.0,54,0.00,,,0.00,meteohub,2013-03-02 13:52:00,
2013-03-02 08:57:00,25.5,10.8,29.75,NNW,348,5.0,12.0,53,0.00,,,0.00,meteohub,2013-03-02 13:57:00,
2013-03-02 09:02:00,25.7,10.9,29.75,WNW,302,5.0,12.0,53,0.00,,,0.00,meteohub,2013-03-02 14:02:00,
2013-03-02 09:07:00,25.7,10.9,29.75,WNW,302,4.0,12.0,53,0.00,,,0.00,meteohub,2013-03-02 14:07:00,
2013-03-02 09:12:00,25.7,10.9,29.75,SSW,212,5.0,11.0,53,0.00,,,0.00,meteohub,2013-03-02 14:12:00,
2013-03-02 09:17:00,26.1,11.3,29.75,SSW,212,8.0,12.0,53,0.00,,,0.00,meteohub,2013-03-02 14:17:00,
2013-03-02 09:22:00,26.1,11.3,29.75,WNW,302,5.0,12.0,53,0.00,,,0.00,meteohub,2013-03-02 14:22:00,
2013-03-02 09:27:00,26.1,11.3,29.75,NE,55,6.0,11.0,53,0.00,,,0.00,meteohub,2013-03-02 14:27:00,
2013-03-02 09:32:00,26.2,11.5,29.75,North,10,3.0,10.0,53,0.00,,,0.00,meteohub,2013-03-02 14:32:00,
2013-03-02 09:37:00,26.4,11.7,29.75,WSW,258,8.0,10.0,53,0.00,,,0.00,meteohub,2013-03-02 14:37:00,
2013-03-02 09:42:00,26.1,11.7,29.75,WNW,302,6.0,15.0,54,0.00,,,0.00,meteohub,2013-03-02 14:42:00,
2013-03-02 09:47:00,26.2,11.8,29.75,NW,325,12.0,16.0,54,0.00,,,0.00,meteohub,2013-03-02 14:47:00,
2013-03-02 09:52:00,26.2,11.5,29.75,NNW,348,12.0,16.0,53,0.00,,,0.00,meteohub,2013-03-02 14:52:00,
2013-03-02 09:57:00,26.2,11.5,29.75,WNW,302,11.0,13.0,53,0.00,,,0.00,meteohub,2013-03-02 14:57:00,
2013-03-02 10:02:00,26.8,11.5,29.75,WSW,258,6.0,13.0,52,0.00,,,0.00,meteohub,2013-03-02 15:02:00,
2013-03-02 10:07:00,27.3,11.7,29.75,NW,325,2.0,13.0,51,0.00,,,0.00,meteohub,2013-03-02 15:07:00,
2013-03-02 10:12:00,27.9,11.1,29.75,WNW,302,11.0,17.0,49,0.00,,,0.00,meteohub,2013-03-02 15:12:00,
2013-03-02 10:17:00,28.2,11.1,29.75,West,280,4.0,17.0,48,0.00,,,0.00,meteohub,2013-03-02 15:17:00,
2013-03-02 10:22:00,28.6,10.9,29.75,SSW,212,3.0,15.0,47,0.00,,,0.00,meteohub,2013-03-02 15:22:00,
2013-03-02 10:27:00,28.6,10.4,29.72,NW,325,13.0,15.0,46,0.00,,,0.00,meteohub,2013-03-02 15:27:00,
2013-03-02 10:32:00,28.0,9.5,29.72,NNW,348,12.0,22.0,45,0.00,,,0.00,meteohub,2013-03-02 15:32:00,
2013-03-02 10:37:00,28.0,10.0,29.72,NNW,348,8.0,24.0,46,0.00,,,0.00,meteohub,2013-03-02 15:37:00,
2013-03-02 10:42:00,27.9,9.9,29.75,WSW,258,9.0,24.0,46,0.00,,,0.00,meteohub,2013-03-02 15:42:00,
2013-03-02 10:47:00,27.9,9.9,29.75,West,280,6.0,21.0,46,0.00,,,0.00,meteohub,2013-03-02 15:47:00,
2013-03-02 10:52:00,28.2,9.7,29.75,SW,235,12.0,21.0,45,0.00,,,0.00,meteohub,2013-03-02 15:52:00,
2013-03-02 10:57:00,28.0,9.5,29.75,WNW,302,13.0,17.0,45,0.00,,,0.00,meteohub,2013-03-02 15:57:00,
2013-03-02 11:02:00,28.4,9.9,29.75,NE,55,3.0,16.0,45,0.00,,,0.00,meteohub,2013-03-02 16:02:00,
2013-03-02 11:07:00,28.4,9.9,29.75,WNW,302,16.0,21.0,45,0.00,,,0.00,meteohub,2013-03-02 16:07:00,
2013-03-02 11:12:00,28.2,9.7,29.75,NNW,348,15.0,21.0,45,0.00,,,0.00,meteohub,2013-03-02 16:12:00,
2013-03-02 11:17:00,28.0,9.5,29.75,NNW,348,13.0,21.0,45,0.00,,,0.00,meteohub,2013-03-02 16:17:00,
2013-03-02 11:22:00,28.0,9.5,29.75,West,280,8.0,17.0,45,0.00,,,0.00,meteohub,2013-03-02 16:22:00,
2013-03-02 11:27:00,28.0,10.0,29.75,WSW,258,11.0,17.0,46,0.00,,,0.00,meteohub,2013-03-02 16:27:00,
2013-03-02 11:32:00,28.0,9.5,29.75,NNW,348,13.0,17.0,45,0.00,,,0.00,meteohub,2013-03-02 16:32:00,
2013-03-02 11:37:00,28.2,9.7,29.75,WSW,258,8.0,17.0,45,0.00,,,0.00,meteohub,2013-03-02 16:37:00,
2013-03-02 11:42:00,27.9,9.3,29.75,NNW,348,11.0,21.0,45,0.00,,,0.00,meteohub,2013-03-02 16:42:00,
2013-03-02 11:47:00,27.5,9.0,29.75,NNW,348,10.0,21.0,45,0.00,,,0.00,meteohub,2013-03-02 16:47:00,
2013-03-02 11:52:00,27.5,9.5,29.75,NNW,348,6.0,21.0,46,0.00,,,0.00,meteohub,2013-03-02 16:52:00,
2013-03-02 12:02:00,28.0,9.5,29.75,WNW,302,5.0,21.0,45,0.00,,,0.00,meteohub,2013-03-02 17:02:00,
2013-03-02 12:07:00,28.6,10.0,29.75,NW,325,3.0,19.0,45,0.00,,,0.00,meteohub,2013-03-02 17:07:00,
2013-03-02 12:12:00,28.2,9.7,29.75,WNW,302,11.0,16.0,45,0.00,,,0.00,meteohub,2013-03-02 17:12:00,
2013-03-02 12:17:00,27.9,9.3,29.75,SSE,168,8.0,21.0,45,0.00,,,0.00,meteohub,2013-03-02 17:17:00,
2013-03-02 12:22:00,27.7,9.1,29.75,SW,235,15.0,21.0,45,0.00,,,0.00,meteohub,2013-03-02 17:22:00,
2013-03-02 12:27:00,27.9,9.9,29.75,WNW,302,10.0,21.0,46,0.00,,,0.00,meteohub,2013-03-02 17:27:00,
2013-03-02 12:32:00,28.4,9.9,29.75,ENE,78,5.0,21.0,45,0.00,,,0.00,meteohub,2013-03-02 17:32:00,
2013-03-02 12:37:00,28.6,9.5,29.75,NW,325,22.0,22.0,44,0.00,,,0.00,meteohub,2013-03-02 17:37:00,
2013-03-02 12:42:00,28.6,9.5,29.75,WNW,302,20.0,22.0,44,0.00,,,0.00,meteohub,2013-03-02 17:42:00,
2013-03-02 12:47:00,28.6,9.5,29.75,NW,325,7.0,22.0,44,0.00,,,0.00,meteohub,2013-03-02 17:47:00,
2013-03-02 12:52:00,28.4,9.9,29.75,WNW,302,16.0,22.0,45,0.00,,,0.00,meteohub,2013-03-02 17:52:00,
2013-03-02 12:57:00,27.9,9.3,29.75,WNW,302,14.0,25.0,45,0.00,,,0.00,meteohub,2013-03-02 17:57:00,
2013-03-02 13:07:00,29.5,10.2,29.75,SSW,212,8.0,25.0,44,0.00,,,0.00,meteohub,2013-03-02 18:07:00,
2013-03-02 13:12:00,30.9,11.7,29.75,South,190,7.0,15.0,44,0.00,,,0.00,meteohub,2013-03-02 18:12:00,
2013-03-02 13:17:00,30.7,9.9,29.75,NW,325,13.0,13.0,41,0.00,,,0.00,meteohub,2013-03-02 18:17:00,
2013-03-02 13:27:00,28.8,8.6,29.75,North,10,17.0,31.0,42,0.00,,,0.00,meteohub,2013-03-02 18:27:00,
2013-03-02 13:32:00,28.6,9.0,29.75,NNW,348,9.0,31.0,43,0.00,,,0.00,meteohub,2013-03-02 18:32:00,
2013-03-02 13:37:00,28.4,9.3,29.75,SSW,212,7.0,25.0,44,0.00,,,0.00,meteohub,2013-03-02 18:37:00,
2013-03-02 13:42:00,28.0,9.5,29.75,NW,325,8.0,25.0,45,0.00,,,0.00,meteohub,2013-03-02 18:42:00,
2013-03-02 13:47:00,28.4,10.2,29.75,NW,325,0.0,17.0,46,0.00,,,0.00,meteohub,2013-03-02 18:47:00,
2013-03-02 13:57:00,28.8,10.0,29.75,WNW,302,3.0,16.0,45,0.00,,,0.00,meteohub,2013-03-02 18:57:00,
2013-03-02 14:02:00,28.6,10.0,29.75,WSW,258,16.0,16.0,45,0.00,,,0.00,meteohub,2013-03-02 19:02:00,
2013-03-02 14:07:00,28.6,10.0,29.75,WNW,302,4.0,16.0,45,0.00,,,0.00,meteohub,2013-03-02 19:07:00,
2013-03-02 14:12:00,28.2,10.0,29.75,NNW,348,11.0,16.0,46,0.00,,,0.00,meteohub,2013-03-02 19:12:00,
2013-03-02 14:17:00,28.6,10.0,29.75,West,280,5.0,17.0,45,0.00,,,0.00,meteohub,2013-03-02 19:17:00,
2013-03-02 14:22:00,28.6,10.0,29.75,NW,325,9.0,17.0,45,0.00,,,0.00,meteohub,2013-03-02 19:22:00,
2013-03-02 14:27:00,28.4,9.9,29.75,WNW,302,7.0,17.0,45,0.00,,,0.00,meteohub,2013-03-02 19:27:00,
2013-03-02 14:32:00,28.6,9.5,29.75,WNW,302,8.0,26.0,44,0.00,,,0.00,meteohub,2013-03-02 19:32:00,
2013-03-02 14:37:00,28.9,9.9,29.75,NW,325,3.0,26.0,44,0.00,,,0.00,meteohub,2013-03-02 19:37:00,
2013-03-02 14:42:00,28.8,9.7,29.75,NNW,348,10.0,15.0,44,0.00,,,0.00,meteohub,2013-03-02 19:42:00,
2013-03-02 14:47:00,28.2,9.7,29.75,NE,55,10.0,21.0,45,0.00,,,0.00,meteohub,2013-03-02 19:47:00,
2013-03-02 14:52:00,28.0,9.5,29.75,WNW,302,11.0,21.0,45,0.00,,,0.00,meteohub,2013-03-02 19:52:00,
2013-03-02 15:02:00,28.2,10.0,29.75,WNW,302,11.0,20.0,46,0.00,,,0.00,meteohub,2013-03-02 20:02:00,
2013-03-02 15:07:00,27.9,9.3,29.75,NNE,32,11.0,20.0,45,0.00,,,0.00,meteohub,2013-03-02 20:07:00,
2013-03-02 15:12:00,27.9,9.3,29.75,WSW,258,5.0,20.0,45,0.00,,,0.00,meteohub,2013-03-02 20:12:00,
2013-03-02 15:17:00,28.0,9.5,29.75,WNW,302,7.0,21.0,45,0.00,,,0.00,meteohub,2013-03-02 20:17:00,
2013-03-02 15:22:00,27.9,9.3,29.75,NNW,348,26.0,26.0,45,0.00,,,0.00,meteohub,2013-03-02 20:22:00,
2013-03-02 15:27:00,27.5,9.0,29.75,SW,235,13.0,26.0,45,0.00,,,0.00,meteohub,2013-03-02 20:27:00,
2013-03-02 15:32:00,27.7,9.1,29.75,NNW,348,7.0,26.0,45,0.00,,,0.00,meteohub,2013-03-02 20:32:00,
2013-03-02 15:37:00,27.7,9.1,29.75,SSW,212,7.0,26.0,45,0.00,,,0.00,meteohub,2013-03-02 20:37:00,
2013-03-02 15:42:00,27.9,9.3,29.75,WSW,258,7.0,20.0,45,0.00,,,0.00,meteohub,2013-03-02 20:42:00,
2013-03-02 15:47:00,27.7,8.6,29.75,WNW,302,13.0,20.0,44,0.00,,,0.00,meteohub,2013-03-02 20:47:00,
2013-03-02 15:52:00,27.7,8.6,29.75,NNW,348,9.0,19.0,44,0.00,,,0.00,meteohub,2013-03-02 20:52:00,
2013-03-02 15:57:00,27.0,8.4,29.75,NNW,348,16.0,25.0,45,0.00,,,0.00,meteohub,2013-03-02 20:57:00,
2013-03-02 16:02:00,27.0,9.0,29.75,NW,325,17.0,25.0,46,0.00,,,0.00,meteohub,2013-03-02 21:02:00,
2013-03-02 16:07:00,27.0,9.0,29.75,WNW,302,15.0,25.0,46,0.00,,,0.00,meteohub,2013-03-02 21:07:00,
2013-03-02 16:12:00,27.1,9.1,29.75,WSW,258,4.0,22.0,46,0.00,,,0.00,meteohub,2013-03-02 21:12:00,
2013-03-02 16:17:00,27.3,9.3,29.75,West,280,3.0,17.0,46,0.00,,,0.00,meteohub,2013-03-02 21:17:00,
2013-03-02 16:27:00,27.1,9.1,29.75,NW,325,7.0,13.0,46,0.00,,,0.00,meteohub,2013-03-02 21:27:00,
2013-03-02 16:32:00,27.0,9.0,29.75,NW,325,15.0,18.0,46,0.00,,,0.00,meteohub,2013-03-02 21:32:00,
2013-03-02 16:37:00,27.0,9.5,29.75,North,10,16.0,18.0,47,0.00,,,0.00,meteohub,2013-03-02 21:37:00,
2013-03-02 16:42:00,26.6,9.5,29.75,NNE,32,7.0,20.0,48,0.00,,,0.00,meteohub,2013-03-02 21:42:00,
2013-03-02 16:47:00,26.8,9.7,29.75,SSW,212,5.0,20.0,48,0.00,,,0.00,meteohub,2013-03-02 21:47:00,
2013-03-02 16:52:00,27.0,10.4,29.75,ENE,78,8.0,20.0,49,0.00,,,0.00,meteohub,2013-03-02 21:52:00,
2013-03-02 16:57:00,26.8,9.3,29.75,West,280,5.0,21.0,47,0.00,,,0.00,meteohub,2013-03-02 21:57:00,
2013-03-02 17:02:00,27.0,9.5,29.75,WSW,258,3.0,21.0,47,0.00,,,0.00,meteohub,2013-03-02 22:02:00,
2013-03-02 17:07:00,26.8,9.3,29.75,NNW,348,11.0,21.0,47,0.00,,,0.00,meteohub,2013-03-02 22:07:00,
2013-03-02 17:12:00,26.4,9.0,29.75,SSE,168,12.0,16.0,47,0.00,,,0.00,meteohub,2013-03-02 22:12:00,
2013-03-02 17:17:00,26.4,9.0,29.75,North,10,13.0,16.0,47,0.00,,,0.00,meteohub,2013-03-02 22:17:00,
2013-03-02 17:27:00,26.2,9.3,29.75,WSW,258,20.0,21.0,48,0.00,,,0.00,meteohub,2013-03-02 22:27:00,
2013-03-02 17:32:00,26.1,10.0,29.75,NE,55,6.0,20.0,50,0.00,,,0.00,meteohub,2013-03-02 22:32:00,
2013-03-02 17:37:00,26.1,10.0,29.75,SSW,212,4.0,20.0,50,0.00,,,0.00,meteohub,2013-03-02 22:37:00,
2013-03-02 17:42:00,26.1,10.0,29.72,NNE,32,6.0,20.0,50,0.00,,,0.00,meteohub,2013-03-02 22:42:00,
2013-03-02 17:47:00,26.1,9.5,29.72,NNW,348,12.0,14.0,49,0.00,,,0.00,meteohub,2013-03-02 22:47:00,
2013-03-02 17:52:00,26.1,9.5,29.72,WNW,302,4.0,18.0,49,0.00,,,0.00,meteohub,2013-03-02 22:52:00,
2013-03-02 17:57:00,26.1,10.0,29.75,WNW,302,8.0,18.0,50,0.00,,,0.00,meteohub,2013-03-02 22:57:00,
2013-03-02 18:02:00,25.7,10.0,29.75,NNW,348,11.0,18.0,51,0.00,,,0.00,meteohub,2013-03-02 23:02:00,
2013-03-02 18:07:00,25.7,10.6,29.75,NNW,348,11.0,16.0,52,0.00,,,0.00,meteohub,2013-03-02 23:07:00,
2013-03-02 18:12:00,25.5,10.8,29.75,SW,235,8.0,16.0,53,0.00,,,0.00,meteohub,2013-03-02 23:12:00,
2013-03-02 18:17:00,25.3,10.6,29.75,WNW,302,5.0,15.0,53,0.00,,,0.00,meteohub,2013-03-02 23:17:00,
2013-03-02 18:22:00,25.2,11.3,29.75,NNW,348,16.0,16.0,55,0.00,,,0.00,meteohub,2013-03-02 23:22:00,
2013-03-02 18:27:00,25.0,11.1,29.78,WSW,258,3.0,22.0,55,0.00,,,0.00,meteohub,2013-03-02 23:27:00,
2013-03-02 18:32:00,25.0,11.1,29.78,South,190,4.0,22.0,55,0.00,,,0.00,meteohub,2013-03-02 23:32:00,
2013-03-02 18:37:00,25.0,11.1,29.78,WNW,302,5.0,22.0,55,0.00,,,0.00,meteohub,2013-03-02 23:37:00,
2013-03-02 18:42:00,25.0,10.8,29.75,WNW,302,5.0,16.0,54,0.00,,,0.00,meteohub,2013-03-02 23:42:00,
2013-03-02 18:47:00,25.0,10.8,29.75,NNW,348,6.0,16.0,54,0.00,,,0.00,meteohub,2013-03-02 23:47:00,
2013-03-02 18:52:00,25.0,10.2,29.75,NNW,348,5.0,15.0,53,0.00,,,0.00,meteohub,2013-03-02 23:52:00,
2013-03-02 18:57:00,25.2,10.4,29.75,SE,145,0.0,15.0,53,0.00,,,0.00,meteohub,2013-03-02 23:57:00,
2013-03-02 19:02:00,25.2,10.9,29.75,South,190,3.0,15.0,54,0.00,,,0.00,meteohub,2013-03-03 00:02:00,
2013-03-02 19:07:00,25.2,10.4,29.75,WNW,302,6.0,8.0,53,0.00,,,0.00,meteohub,2013-03-03 00:07:00,
2013-03-02 19:12:00,25.0,10.2,29.78,North,10,12.0,13.0,53,0.00,,,0.00,meteohub,2013-03-03 00:12:00,
2013-03-02 19:17:00,25.0,9.9,29.78,SSW,212,8.0,22.0,52,0.00,,,0.00,meteohub,2013-03-03 00:17:00,
2013-03-02 19:22:00,25.0,9.9,29.78,SSW,212,9.0,22.0,52,0.00,,,0.00,meteohub,2013-03-03 00:22:00,
2013-03-02 19:27:00,25.0,9.9,29.78,ESE,122,8.0,22.0,52,0.00,,,0.00,meteohub,2013-03-03 00:27:00,
2013-03-02 19:32:00,25.2,9.1,29.78,WSW,258,8.0,21.0,50,0.00,,,0.00,meteohub,2013-03-03 00:32:00,
2013-03-02 19:37:00,25.2,8.8,29.78,WSW,258,14.0,25.0,49,0.00,,,0.00,meteohub,2013-03-03 00:37:00,
2013-03-02 19:47:00,25.2,8.8,29.78,WSW,258,5.0,25.0,49,0.00,,,0.00,meteohub,2013-03-03 00:47:00,
2013-03-02 19:52:00,25.2,8.2,29.78,NNW,348,4.0,14.0,48,0.00,,,0.00,meteohub,2013-03-03 00:52:00,
2013-03-02 19:57:00,25.2,8.2,29.78,NW,325,7.0,13.0,48,0.00,,,0.00,meteohub,2013-03-03 00:57:00,
2013-03-02 20:02:00,25.2,8.2,29.78,WNW,302,13.0,13.0,48,0.00,,,0.00,meteohub,2013-03-03 01:02:00,
2013-03-02 20:07:00,25.2,8.2,29.78,NNW,348,7.0,13.0,48,0.00,,,0.00,meteohub,2013-03-03 01:07:00,
2013-03-02 20:12:00,25.2,8.2,29.78,NNW,348,4.0,13.0,48,0.00,,,0.00,meteohub,2013-03-03 01:12:00,
2013-03-02 20:17:00,25.2,8.2,29.78,NNW,348,5.0,13.0,48,0.00,,,0.00,meteohub,2013-03-03 01:17:00,
2013-03-02 20:22:00,25.2,8.8,29.78,North,10,8.0,13.0,49,0.00,,,0.00,meteohub,2013-03-03 01:22:00,
2013-03-02 20:27:00,25.2,8.2,29.78,NNE,32,7.0,13.0,48,0.00,,,0.00,meteohub,2013-03-03 01:27:00,
2013-03-02 20:32:00,25.0,8.6,29.78,WNW,302,5.0,15.0,49,0.00,,,0.00,meteohub,2013-03-03 01:32:00,
2013-03-02 20:37:00,25.0,8.6,29.78,NNW,348,8.0,15.0,49,0.00,,,0.00,meteohub,2013-03-03 01:37:00,
2013-03-02 20:42:00,25.0,8.6,29.81,WSW,258,6.0,11.0,49,0.00,,,0.00,meteohub,2013-03-03 01:42:00,
2013-03-02 20:47:00,25.0,8.6,29.81,West,280,4.0,11.0,49,0.00,,,0.00,meteohub,2013-03-03 01:47:00,
2013-03-02 20:52:00,24.8,8.8,29.81,NNW,348,8.0,17.0,50,0.00,,,0.00,meteohub,2013-03-03 01:52:00,
2013-03-02 20:57:00,24.8,9.3,29.78,WNW,302,12.0,17.0,51,0.00,,,0.00,meteohub,2013-03-03 01:57:00,
2013-03-02 21:02:00,24.8,9.7,29.78,WSW,258,3.0,17.0,52,0.00,,,0.00,meteohub,2013-03-03 02:02:00,
2013-03-02 21:07:00,24.8,10.0,29.78,SW,235,11.0,16.0,53,0.00,,,0.00,meteohub,2013-03-03 02:07:00,
2013-03-02 21:12:00,24.6,10.0,29.81,NNW,348,5.0,16.0,53,0.00,,,0.00,meteohub,2013-03-03 02:12:00,
2013-03-02 21:17:00,24.6,10.0,29.81,NNW,348,8.0,19.0,53,0.00,,,0.00,meteohub,2013-03-03 02:17:00,
2013-03-02 21:22:00,24.6,10.0,29.81,West,280,3.0,19.0,53,0.00,,,0.00,meteohub,2013-03-03 02:22:00,
2013-03-02 21:27:00,24.4,10.2,29.78,NNW,348,3.0,17.0,54,0.00,,,0.00,meteohub,2013-03-03 02:27:00,
2013-03-02 21:32:00,24.4,9.9,29.78,SSE,168,5.0,12.0,53,0.00,,,0.00,meteohub,2013-03-03 02:32:00,
2013-03-02 21:37:00,24.4,9.9,29.78,SSW,212,10.0,12.0,53,0.00,,,0.00,meteohub,2013-03-03 02:37:00,
2013-03-02 21:42:00,24.4,10.2,29.81,South,190,7.0,12.0,54,0.00,,,0.00,meteohub,2013-03-03 02:42:00,
2013-03-02 21:47:00,24.4,10.2,29.81,WSW,258,7.0,12.0,54,0.00,,,0.00,meteohub,2013-03-03 02:47:00,
2013-03-02 21:52:00,24.4,10.2,29.81,SE,145,5.0,13.0,54,0.00,,,0.00,meteohub,2013-03-03 02:52:00,
2013-03-02 21:57:00,24.4,10.6,29.81,WSW,258,21.0,21.0,55,0.00,,,0.00,meteohub,2013-03-03 02:57:00,
2013-03-02 22:02:00,24.4,10.6,29.81,NW,325,9.0,21.0,55,0.00,,,0.00,meteohub,2013-03-03 03:02:00,
2013-03-02 22:07:00,24.4,10.6,29.81,NW,325,7.0,21.0,55,0.00,,,0.00,meteohub,2013-03-03 03:07:00,
2013-03-02 22:12:00,24.3,10.8,29.81,ESE,122,4.0,21.0,56,0.00,,,0.00,meteohub,2013-03-03 03:12:00,
2013-03-02 22:17:00,24.3,10.8,29.81,NNE,32,5.0,17.0,56,0.00,,,0.00,meteohub,2013-03-03 03:17:00,
2013-03-02 22:22:00,24.3,10.8,29.81,SSW,212,7.0,17.0,56,0.00,,,0.00,meteohub,2013-03-03 03:22:00,
2013-03-02 22:27:00,24.3,10.8,29.81,WSW,258,5.0,17.0,56,0.00,,,0.00,meteohub,2013-03-03 03:27:00,
2013-03-02 22:32:00,24.3,10.8,29.81,NW,325,8.0,14.0,56,0.00,,,0.00,meteohub,2013-03-03 03:32:00,
2013-03-02 22:37:00,24.3,10.8,29.81,NNW,348,4.0,14.0,56,0.00,,,0.00,meteohub,2013-03-03 03:37:00,
2013-03-02 22:42:00,24.3,10.8,29.81,SE,145,3.0,10.0,56,0.00,,,0.00,meteohub,2013-03-03 03:42:00,
2013-03-02 22:47:00,24.3,10.8,29.81,WNW,302,5.0,12.0,56,0.00,,,0.00,meteohub,2013-03-03 03:47:00,
2013-03-02 22:52:00,24.3,10.8,29.81,NW,325,6.0,12.0,56,0.00,,,0.00,meteohub,2013-03-03 03:52:00,
2013-03-02 22:57:00,24.3,10.8,29.78,WNW,302,5.0,12.0,56,0.00,,,0.00,meteohub,2013-03-03 03:57:00,
2013-03-02 23:02:00,24.1,10.8,29.78,WSW,258,8.0,12.0,56,0.00,,,0.00,meteohub,2013-03-03 04:02:00,
2013-03-02 23:17:00,24.1,10.8,29.78,WSW,258,4.0,17.0,56,0.00,,,0.00,meteohub,2013-03-03 04:17:00,
2013-03-02 23:22:00,24.1,11.1,29.78,WNW,302,5.0,17.0,57,0.00,,,0.00,meteohub,2013-03-03 04:22:00,
2013-03-02 23:27:00,24.1,11.1,29.78,WNW,302,20.0,20.0,57,0.00,,,0.00,meteohub,2013-03-03 04:27:00,
2013-03-02 23:32:00,24.1,10.8,29.78,SW,235,6.0,21.0,56,0.00,,,0.00,meteohub,2013-03-03 04:32:00,
2013-03-02 23:37:00,24.1,10.8,29.78,SW,235,3.0,21.0,56,0.00,,,0.00,meteohub,2013-03-03 04:37:00,
2013-03-02 23:42:00,24.1,10.8,29.78,SSW,212,5.0,21.0,56,0.00,,,0.00,meteohub,2013-03-03 04:42:00,
2013-03-02 23:47:00,24.1,11.1,29.78,South,190,9.0,20.0,57,0.00,,,0.00,meteohub,2013-03-03 04:47:00,
2013-03-02 23:52:00,23.9,10.9,29.78,West,280,4.0,20.0,57,0.00,,,0.00,meteohub,2013-03-03 04:52:00,
2013-03-02 23:57:00,23.9,11.3,29.78,SW,235,4.0,11.0,58,0.00,,,0.00,meteohub,2013-03-03 04:57:00,